Weather in Shahrud

Iran     36°25′19″N   54°57′41″E
temp.,
°C
wind,
m/s
gust,
m/s
humid.,
%
clouds,
%
prec.,
mm/h
press.,
hPa
HPBL,
m
25 june, sat
sat2501:30+22nne33400 0.0 100831
04:30+23nne33320 0.0 100715
07:30+25ne35270 0.0 1009349
10:30+29e32210 0.0 10081423
13:30+32ese22121 0.0 10063540
16:30+33nne75172 0.0 10052694
19:30+28n66290 0.0 1006455
22:30+25nne22340 0.0 100724
26 june, sun
sun2601:30+25n22320 0.0 100714
04:30+24n33300 0.0 100614
07:30+26ne23290 0.0 1008233
10:30+30s24190 0.0 10071439
13:30+35ssw6691 0.0 10054434
16:30+35ssw5581 0.0 10034198
19:30+33sse22931 0.0 1002369
22:30+28nne222086 0.0 100418
27 june, mon
mon2701:30+27nne331928 0.0 100413
04:30+25nne22222 0.0 100611
07:30+29sse24180 0.0 1007537
10:30+33s67110 0.0 10072098
13:30+36s6780 0.0 10053871
16:30+37s76711 0.0 10034946
19:30+34ene231115 0.0 1004114
22:30+29nne32231 0.0 100716
28 june, tue
tue2801:30+28nnw33280 0.0 100721
04:30+26w23270 0.0 100715
07:30+29wsw35160 0.0 1009533
10:30+33ssw67120 0.0 10081358
13:30+36ssw7690 0.0 10063153
16:30+37ssw5480 0.0 10044191
19:30+35ene12114 0.0 1004112
22:30+29nnw22200 0.0 100614
29 june, wed
wed2901:30+27nnw22230 0.0 100712
04:30+25wnw22210 0.0 100714
07:30+29ssw13160 0.0 1008298
10:30+34ssw56100 0.0 10061583
13:30+37ssw6670 0.0 10043080
16:30+35nne33110 0.0 10042830
19:30+27ne55320 0.0 1006288
22:30+26nne34360 0.0 100768